EW4235 Fairfax VA US current weather conditions

sailwx.info

Wind from 315 at 0 knots gusting 1

Air temperature 1.1° C
Dewpoint -1.9° C

Last reported at 2020-Jan-27 12:08 UTC.
Time now 2020-Jan-27 13:13 UTC

Location: N 38°52' W 077°16'.
View on Google Maps.

See reports from other nearby stations

  
Tides and Currents Weather Stations Pressure Air Temp Water Temp Dewpoint Dewpoint Depression Visibility Wind Speed Wind Dir Waves Ship Positions
date/time (UTC)wind fromknots sea level pressurealtimeterstation pressurevisibilityair tempwater tempwave heightnotes
2020-Jan-27 12:08 315 0 gusting 1 1.1
2020-Jan-27 12:03 224 1.1
2020-Jan-27 11:58 234 1.1
2020-Jan-27 11:53 271 1.1
2020-Jan-27 11:48 195 1.1
2020-Jan-27 11:43 245 0.6
2020-Jan-27 11:38 342 0.6
2020-Jan-27 11:33 342 0.6
2020-Jan-27 11:28 342 1.1
2020-Jan-27 11:23 257 1.1
2020-Jan-27 11:18 223 1.1
2020-Jan-27 11:13 223 1.1
2020-Jan-27 11:08 233 0 gusting 1 1.1
2020-Jan-27 11:03 266 1.1
2020-Jan-27 10:58 264 1.1
2020-Jan-27 10:53 275 1.1
2020-Jan-27 10:48 293 0 gusting 1 1.1
2020-Jan-27 10:43 272 0 gusting 2 1.1
2020-Jan-27 10:38 259 1.1
2020-Jan-27 10:33 250 0.6
2020-Jan-27 10:28 238 0.6
2020-Jan-27 10:23 259 0.6
2020-Jan-27 10:18 221 0.6
2020-Jan-27 10:13 227 0.6
2020-Jan-27 10:08 160 0.6
2020-Jan-27 10:03 208 0.6
2020-Jan-27 09:58 212 -0.0
2020-Jan-27 09:53 212 -0.0
2020-Jan-27 09:48 213 0.6
2020-Jan-27 09:43 213 0.6
2020-Jan-27 09:38 244 0.6
2020-Jan-27 09:33 271 0.6
2020-Jan-27 09:28 232 0.6
2020-Jan-27 09:22 295 -0.0
2020-Jan-27 09:17 296 -0.0
2020-Jan-27 09:12 324 -0.0
2020-Jan-27 09:07 324 -0.0
2020-Jan-27 09:02 324 0.6
2020-Jan-27 08:57 324 0.6
2020-Jan-27 08:52 324 0.6
2020-Jan-27 08:47 324 0.6
2020-Jan-27 08:42 324 1.1
2020-Jan-27 08:37 324 1.1
2020-Jan-27 08:32 324 1.1
2020-Jan-27 08:27 324 1.7
2020-Jan-27 08:22 324 1.7
2020-Jan-27 08:17 271 2.2
2020-Jan-27 08:12 266 2.2
2020-Jan-27 08:07 268 2.2
2020-Jan-27 08:02 260 2.2
2020-Jan-27 07:57 259 2.2
2020-Jan-27 07:52 259 2.2
2020-Jan-27 07:47 256 2.8
2020-Jan-27 07:42 256 0 gusting 1 2.8
2020-Jan-27 07:37 281 2.8
2020-Jan-27 07:32 239 0 gusting 1 2.8
2020-Jan-27 07:27 272 3.3
2020-Jan-27 07:22 257 3.3
2020-Jan-27 07:17 213 3.3
2020-Jan-27 07:12 267 3.3
2020-Jan-27 07:07 266 3.3
2020-Jan-27 07:02 258 3.3
2020-Jan-27 06:57 267 3.3
2020-Jan-27 06:52 267 3.3
2020-Jan-27 06:47 267 0 gusting 2 3.3
2020-Jan-27 06:42 276 0 gusting 2 3.3
2020-Jan-27 06:37 242 3.3
2020-Jan-27 06:32 269 2.8
2020-Jan-27 06:27 269 2.8
2020-Jan-27 06:22 269 2.8
2020-Jan-27 06:17 277 2.2
2020-Jan-27 06:11 241 1.7
2020-Jan-27 06:06 257 1.7
2020-Jan-27 06:01 257 1.7
2020-Jan-27 05:56 257 1.1
2020-Jan-27 05:51 257 1.1
2020-Jan-27 05:46 257 0.6
2020-Jan-27 05:41 257 0.6
2020-Jan-27 05:36 257 0.6
2020-Jan-27 05:31 257 0.6
2020-Jan-27 05:26 257 0.6
2020-Jan-27 05:21 257 0.6
2020-Jan-27 05:16 257 0.6
2020-Jan-27 05:11 257 0.6
2020-Jan-27 05:06 257 1.1
2020-Jan-27 05:01 257 1.1
2020-Jan-27 04:56 257 1.1
2020-Jan-27 04:51 257 1.1
2020-Jan-27 04:46 256 1.1
2020-Jan-27 04:41 257 1.1
2020-Jan-27 04:36 257 1.7
2020-Jan-27 04:31 257 1.7
2020-Jan-27 04:26 257 1.7
2020-Jan-27 04:21 257 2.2
2020-Jan-27 04:16 257 2.2
2020-Jan-27 04:11 257 2.2
2020-Jan-27 04:06 256 2.8
2020-Jan-27 04:01 256 2.8
2020-Jan-27 03:56 256 2.8
2020-Jan-27 03:51 257 2.8
2020-Jan-27 03:46 257 3.3
2020-Jan-27 03:41 256 3.3
2020-Jan-27 03:36 257 3.3
2020-Jan-27 03:31 257 3.9
2020-Jan-27 03:26 257 3.9
2020-Jan-27 03:21 257 3.9
2020-Jan-27 03:16 257 3.9
2020-Jan-27 03:11 281 3.9
2020-Jan-27 03:06 283 4.4
2020-Jan-27 03:01 287 4.4
2020-Jan-27 02:56 287 4.4
2020-Jan-27 02:51 277 4.4
2020-Jan-27 02:46 265 4.4
2020-Jan-27 02:41 300 4.4
2020-Jan-27 02:36 283 4.4
2020-Jan-27 02:31 285 4.4
2020-Jan-27 02:26 285 5.0
2020-Jan-27 02:21 278 5.0
2020-Jan-27 02:16 269 0 gusting 3 5.0
2020-Jan-27 02:10 299 0 gusting 3 5.0
2020-Jan-27 02:05 246 0 gusting 2 5.0
2020-Jan-27 02:00 316 0 gusting 2 5.0
2020-Jan-27 01:55 300 0 gusting 2 5.0
2020-Jan-27 01:50 316 0 gusting 3 5.0
2020-Jan-27 01:45 282 0 gusting 4 5.0
2020-Jan-27 01:40 346 0 gusting 4 5.0
2020-Jan-27 01:35 290 0 gusting 5 5.0
2020-Jan-27 01:30 326 2 gusting 5 5.0
2020-Jan-27 01:25 323 2 gusting 11 5.0
2020-Jan-27 01:20 312 2 gusting 11 5.0
2020-Jan-27 01:15 307 3 gusting 12 5.0
2020-Jan-27 01:10 302 3 gusting 12 5.0
2020-Jan-27 01:05 307 2 gusting 6 5.0
2020-Jan-27 01:00 295 2 gusting 6 5.0
2020-Jan-27 00:55 323 3 gusting 7 5.0
2020-Jan-27 00:50 276 2 gusting 7 5.0
2020-Jan-27 00:45 302 3 gusting 7 5.6
2020-Jan-27 00:40 274 4 gusting 13 5.6
2020-Jan-27 00:35 307 2 gusting 13 5.6
2020-Jan-27 00:30 329 1 gusting 6 5.6
2020-Jan-27 00:25 263 0 gusting 4 5.6
2020-Jan-27 00:20 288 1 gusting 4 5.6
2020-Jan-27 00:15 283 1 gusting 4 5.6
2020-Jan-27 00:10 314 1 gusting 3 5.6
2020-Jan-27 00:05 294 1 gusting 6 5.6
2020-Jan-27 00:00 282 1 gusting 6 5.6
2020-Jan-26 23:55 304 1 gusting 6 5.6
2020-Jan-26 23:50 277 1 gusting 4 5.6
2020-Jan-26 23:45 274 2 gusting 6 5.6
2020-Jan-26 23:40 291 2 gusting 6 6.1
2020-Jan-26 23:35 287 1 gusting 6 6.1
2020-Jan-26 23:30 269 1 gusting 4 6.1
2020-Jan-26 23:25 316 1 gusting 5 6.1
2020-Jan-26 23:20 293 2 gusting 5 6.1
2020-Jan-26 23:15 276 1 gusting 4 6.1
2020-Jan-26 23:10 288 1 gusting 4 6.1
2020-Jan-26 23:05 304 2 gusting 6 6.1
2020-Jan-26 23:00 263 3 gusting 8 6.1
2020-Jan-26 22:55 284 1 gusting 8 6.1
2020-Jan-26 22:50 303 1 gusting 6 6.1
2020-Jan-26 22:45 290 2 gusting 8 6.1
2020-Jan-26 22:40 289 2 gusting 8 6.1
2020-Jan-26 22:35 267 1 gusting 6 6.1
2020-Jan-26 22:30 328 0 gusting 4 6.7
2020-Jan-26 22:25 318 0 gusting 2 6.7
2020-Jan-26 22:20 330 0 gusting 2 6.7
2020-Jan-26 22:15 324 1 gusting 3 6.7
2020-Jan-26 22:10 330 2 gusting 6 6.7
2020-Jan-26 22:05 293 2 gusting 7 6.7
2020-Jan-26 22:00 285 2 gusting 7 6.7
2020-Jan-26 21:55 293 1 gusting 5 6.7
2020-Jan-26 21:50 289 1 gusting 4 6.7
2020-Jan-26 21:45 318 2 gusting 4 6.7
2020-Jan-26 21:40 308 2 gusting 6 6.7
2020-Jan-26 21:35 301 1 gusting 6 6.7
2020-Jan-26 21:29 259 0 gusting 3 6.7
2020-Jan-26 21:24 283 1 gusting 4 6.7
2020-Jan-26 21:19 290 2 gusting 5 6.7
2020-Jan-26 21:14 293 2 gusting 5 6.7
2020-Jan-26 21:09 295 1 gusting 4 7.2
2020-Jan-26 21:04 282 0 gusting 3 7.2
2020-Jan-26 20:59 275 0 gusting 3 7.2
2020-Jan-26 20:54 290 0 gusting 3 7.2
2020-Jan-26 20:49 273 1 gusting 6 7.2
2020-Jan-26 20:44 304 0 gusting 6 7.2
2020-Jan-26 20:39 293 0 gusting 3 7.2
2020-Jan-26 20:34 296 1 gusting 4 7.2
2020-Jan-26 20:29 295 1 gusting 4 6.7
2020-Jan-26 20:24 292 0 gusting 3 7.2
2020-Jan-26 20:19 277 1 gusting 5 7.2
2020-Jan-26 20:14 304 1 gusting 5 7.2
2020-Jan-26 20:09 305 1 gusting 5 7.2
2020-Jan-26 20:04 263 1 gusting 4 7.2
2020-Jan-26 19:59 292 1 gusting 4 7.2
2020-Jan-26 19:54 301 1 gusting 4 7.2
2020-Jan-26 19:49 305 1 gusting 5 7.2
2020-Jan-26 19:44 287 2 gusting 6 7.2
2020-Jan-26 19:39 292 2 gusting 6 7.2
2020-Jan-26 19:34 297 2 gusting 7 7.2
2020-Jan-26 19:29 008 1 gusting 7 7.2
2020-Jan-26 19:24 278 1 gusting 4 7.2
2020-Jan-26 19:19 307 1 gusting 4 7.2
2020-Jan-26 19:14 305 1 gusting 4 7.2
2020-Jan-26 19:09 280 1 gusting 6 7.2
2020-Jan-26 19:04 329 2 gusting 7 7.2
2020-Jan-26 18:59 323 2 gusting 7 7.2
2020-Jan-26 18:54 275 2 gusting 7 7.2
2020-Jan-26 18:49 306 1 gusting 6 7.2
2020-Jan-26 18:44 263 1 gusting 6 7.2
2020-Jan-26 18:39 269 2 gusting 6 7.2
2020-Jan-26 18:34 285 2 gusting 6 7.8
2020-Jan-26 18:29 278 3 gusting 7 7.2
2020-Jan-26 18:24 002 2 gusting 7 7.2
2020-Jan-26 18:19 300 3 gusting 9 7.2
2020-Jan-26 18:14 296 3 gusting 9 7.2
2020-Jan-26 18:09 290 2 gusting 6 7.2
2020-Jan-26 18:04 269 3 gusting 6 7.2
2020-Jan-26 17:59 344 2 gusting 6 7.2
2020-Jan-26 17:54 302 2 gusting 8 7.2
2020-Jan-26 17:49 264 4 gusting 11 7.2
2020-Jan-26 17:44 282 4 gusting 11 7.2
2020-Jan-26 17:39 289 4 gusting 10 7.2
2020-Jan-26 17:34 335 4 gusting 10 7.2
2020-Jan-26 17:29 250 4 gusting 7 7.2
2020-Jan-26 17:24 289 3 gusting 6 7.2
2020-Jan-26 17:19 266 2 gusting 8 7.2
2020-Jan-26 17:14 304 3 gusting 9 7.2
2020-Jan-26 17:09 288 4 gusting 9 7.2
2020-Jan-26 17:04 258 5 gusting 9 7.2
2020-Jan-26 16:59 279 4 gusting 9 7.2
2020-Jan-26 16:54 283 3 gusting 9 7.2
2020-Jan-26 16:49 041 3 gusting 12 7.2
2020-Jan-26 16:44 295 4 gusting 12 7.2
2020-Jan-26 16:39 269 4 gusting 8 7.2
2020-Jan-26 16:34 289 3 gusting 9 6.7
2020-Jan-26 16:28 289 4 gusting 9 6.7
2020-Jan-26 16:23 239 4 gusting 9 6.7
2020-Jan-26 16:18 262 4 gusting 9 6.7
2020-Jan-26 16:13 259 3 gusting 7 6.7
2020-Jan-26 16:08 303 4 gusting 9 6.7
2020-Jan-26 16:03 281 4 gusting 9 6.7
2020-Jan-26 15:58 288 4 gusting 9 6.7
2020-Jan-26 15:53 262 4 gusting 8 6.7
2020-Jan-26 15:48 264 3 gusting 8 6.7
2020-Jan-26 15:43 295 2 gusting 8 6.7
2020-Jan-26 15:38 308 2 gusting 6 6.7
2020-Jan-26 15:33 269 3 gusting 8 6.7
2020-Jan-26 15:28 283 2 gusting 8 6.7
2020-Jan-26 15:23 286 2 gusting 5 6.7
2020-Jan-26 15:18 260 2 gusting 6 6.1
2020-Jan-26 15:13 281 1 gusting 6 6.1
2020-Jan-26 15:08 269 1 gusting 4 6.1
2020-Jan-26 15:03 271 2 gusting 5 5.6
2020-Jan-26 14:58 250 2 gusting 6 5.6
2020-Jan-26 14:53 325 2 gusting 6 5.0
2020-Jan-26 14:48 283 1 gusting 4 5.0
2020-Jan-26 14:43 290 0 gusting 3 4.4
2020-Jan-26 14:38 281 4.4
2020-Jan-26 14:33 257 3.9
2020-Jan-26 14:28 270 3.3
2020-Jan-26 14:23 270 3.3
2020-Jan-26 14:18 274 2.8
2020-Jan-26 14:13 292 2.2
2020-Jan-26 14:08 280 1.7
2020-Jan-26 14:03 281 1.7
2020-Jan-26 13:58 281 1.1
2020-Jan-26 13:53 282 1.1
2020-Jan-26 13:48 281 0.6
2020-Jan-26 13:43 281 0.6
2020-Jan-26 13:38 282 0.6
2020-Jan-26 13:33 281 0.6
2020-Jan-26 13:28 281 -0.0
2020-Jan-26 13:23 281 -0.6
2020-Jan-26 13:18 281 -0.6
2020-Jan-26 13:13 281 -0.6
2020-Jan-26 13:08 281 -0.6
2020-Jan-26 13:03 281 -1.1
2020-Jan-26 12:58 281 -1.1
2020-Jan-26 12:53 282 -1.1
2020-Jan-26 12:48 282 -1.1
2020-Jan-26 12:43 282 -1.1
2020-Jan-26 12:38 282 -1.1
2020-Jan-26 12:33 282 -1.1
2020-Jan-26 12:28 282 -1.1
2020-Jan-26 12:23 282 -1.1
2020-Jan-26 12:18 282 -0.6
2020-Jan-26 12:12 282 -0.6
2020-Jan-26 12:07 281 -0.6
2020-Jan-26 12:02 281 -0.6
2020-Jan-26 11:57 281 -0.6
2020-Jan-26 11:52 281 -0.6
2020-Jan-26 11:47 281 -0.6
2020-Jan-26 11:42 281 -0.0
2020-Jan-26 11:37 281 -0.0
2020-Jan-26 11:32 281 -0.0
2020-Jan-26 11:27 281 -0.0
2020-Jan-26 11:22 281 0.6
2020-Jan-26 11:17 281 0.6
2020-Jan-26 11:12 281 0.6
2020-Jan-26 11:07 281 1.1
2020-Jan-26 11:02 281 1.1
2020-Jan-26 10:57 281 1.7
2020-Jan-26 10:52 281 1.7
2020-Jan-26 10:47 281 2.2
2020-Jan-26 10:42 281 2.2
2020-Jan-26 10:37 281 2.8
2020-Jan-26 10:32 281 2.8
2020-Jan-26 10:27 281 2.8
2020-Jan-26 10:22 281 2.8
2020-Jan-26 10:17 281 2.8
2020-Jan-26 10:12 281 0 gusting 1 2.8
2020-Jan-26 10:07 282 0 gusting 1 2.2
2020-Jan-26 10:02 292 0 gusting 1 2.2
2020-Jan-26 09:57 281 0 gusting 1 2.2
2020-Jan-26 09:52 279 2.2
2020-Jan-26 09:47 278 2.2
2020-Jan-26 09:42 278 2.2
2020-Jan-26 09:37 278 2.2
2020-Jan-26 09:32 278 2.2
2020-Jan-26 09:27 278 2.8
2020-Jan-26 09:22 278 2.8
2020-Jan-26 09:17 278 2.8
2020-Jan-26 09:11 278 3.3
2020-Jan-26 09:06 278 3.3
2020-Jan-26 09:01 278 3.3
2020-Jan-26 08:56 278 3.9
2020-Jan-26 08:51 278 3.9
2020-Jan-26 08:46 278 3.9
2020-Jan-26 08:41 278 3.9
2020-Jan-26 08:36 278 3.9
2020-Jan-26 08:31 278 3.9
2020-Jan-26 08:26 312 0 gusting 1 4.4
2020-Jan-26 08:21 282 0 gusting 1 4.4
2020-Jan-26 08:16 290 0 gusting 1 4.4
2020-Jan-26 08:11 283 0 gusting 2 3.9
2020-Jan-26 08:06 276 1 gusting 2 3.9
2020-Jan-26 08:01 284 1 gusting 3 3.9
2020-Jan-26 07:56 294 1 gusting 3 4.4
2020-Jan-26 07:51 267 1 gusting 3 4.4
2020-Jan-26 07:46 286 1 gusting 4 3.9
2020-Jan-26 07:41 293 1 gusting 4 3.9
2020-Jan-26 07:36 294 0 gusting 2 3.9
2020-Jan-26 07:31 286 0 gusting 2 3.9
2020-Jan-26 07:26 290 0 gusting 2 3.9
2020-Jan-26 07:21 282 0 gusting 2 3.3
2020-Jan-26 07:16 292 0 gusting 2 3.3
2020-Jan-26 07:11 290 0 gusting 1 3.3
2020-Jan-26 07:06 283 0 gusting 1 3.3
2020-Jan-26 07:03 276 2.8
2020-Jan-26 06:56 269 2.8
2020-Jan-26 06:51 268 2.8
2020-Jan-26 06:46 275 3.3
2020-Jan-26 06:41 274 3.3
2020-Jan-26 06:38 274 3.3
2020-Jan-26 06:31 274 3.9
2020-Jan-26 06:28 274 3.9
2020-Jan-26 06:21 274 0 gusting 0 3.9
2020-Jan-26 06:16 266 0 gusting 0 3.9
2020-Jan-26 06:13 285 3.9
2020-Jan-26 06:06 285 3.9
2020-Jan-26 06:01 285 4.4
2020-Jan-26 05:56 285 4.4
2020-Jan-26 05:50 285 4.4
2020-Jan-26 05:46 285 4.4
2020-Jan-26 05:40 297 0 gusting 1 4.4
2020-Jan-26 05:35 297 0 gusting 1 4.4
2020-Jan-26 05:30 281 0 gusting 2 4.4
2020-Jan-26 05:25 274 0 gusting 2 5.0
2020-Jan-26 05:20 286 0 gusting 4 5.0
2020-Jan-26 05:15 281 1 gusting 4 5.0
2020-Jan-26 05:10 295 1 gusting 5 5.0
2020-Jan-26 05:05 291 2 gusting 5 5.0
2020-Jan-26 05:00 294 2 gusting 5 5.6
2020-Jan-26 04:55 290 2 gusting 6 5.6
2020-Jan-26 04:50 307 2 gusting 6 5.6
2020-Jan-26 04:45 271 1 gusting 6 5.6
2020-Jan-26 04:40 288 1 gusting 4 5.6
2020-Jan-26 04:35 297 2 gusting 6 5.6
2020-Jan-26 04:30 295 2 gusting 6 5.0
2020-Jan-26 04:25 290 2 gusting 6 5.0
2020-Jan-26 04:20 286 1 gusting 4 5.0
2020-Jan-26 04:15 319 0 gusting 1 5.0
2020-Jan-26 04:10 273 5.0
2020-Jan-26 04:05 281 0 gusting 0 5.0
2020-Jan-26 04:00 281 0 gusting 1 5.0
2020-Jan-26 03:55 285 0 gusting 1 5.0
2020-Jan-26 03:50 283 0 gusting 1 5.0
2020-Jan-26 03:45 296 0 gusting 1 5.0
2020-Jan-26 03:40 285 0 gusting 2 5.0
2020-Jan-26 03:35 307 0 gusting 2 5.0
2020-Jan-26 03:30 283 5.0
2020-Jan-26 03:25 285 4.4
2020-Jan-26 03:20 284 4.4
2020-Jan-26 03:10 285 4.4
2020-Jan-26 03:05 283 4.4
2020-Jan-26 03:00 284 4.4
2020-Jan-26 02:55 294 4.4
2020-Jan-26 02:50 295 4.4
2020-Jan-26 02:45 295 4.4
2020-Jan-26 02:40 295 4.4
2020-Jan-26 02:35 295 4.4
2020-Jan-26 02:30 292 5.0
2020-Jan-26 02:24 292 5.0
2020-Jan-26 02:19 292 5.0
2020-Jan-26 02:14 292 5.0
2020-Jan-26 02:09 293 0 gusting 2 5.0
2020-Jan-26 02:04 278 0 gusting 2 5.0
2020-Jan-26 01:59 290 1 gusting 3 5.0
2020-Jan-26 01:54 291 1 gusting 3 5.0
2020-Jan-26 01:49 290 0 gusting 4 4.4
2020-Jan-26 01:44 297 0 gusting 4 4.4
2020-Jan-26 01:39 289 3.9
2020-Jan-26 01:34 288 3.9
2020-Jan-26 01:29 290 3.9
2020-Jan-26 01:24 290 3.9
2020-Jan-26 01:19 290 3.9
2020-Jan-26 01:14 290 3.9
2020-Jan-26 01:09 290 4.4
2020-Jan-26 01:04 290 4.4
2020-Jan-26 00:59 290 3.9
2020-Jan-26 00:54 291 3.9
2020-Jan-26 00:49 292 4.4
2020-Jan-26 00:44 292 4.4
2020-Jan-26 00:39 292 4.4
2020-Jan-26 00:34 292 5.0
2020-Jan-26 00:29 292 5.0
2020-Jan-26 00:24 292 5.0
2020-Jan-26 00:19 292 5.6
2020-Jan-26 00:14 291 5.6
2020-Jan-26 00:09 291 6.1
2020-Jan-26 00:04 292 6.1
2020-Jan-25 23:59 292 6.1
2020-Jan-25 23:54 291 6.1
2020-Jan-25 23:49 292 6.1
2020-Jan-25 23:44 291 6.7
2020-Jan-25 23:39 291 6.7
2020-Jan-25 23:34 292 6.7
2020-Jan-25 23:29 292 7.2
2020-Jan-25 23:24 292 7.2
2020-Jan-25 23:19 292 7.8
2020-Jan-25 23:14 291 7.8
2020-Jan-25 23:09 291 7.8
2020-Jan-25 23:04 290 7.8
2020-Jan-25 22:58 290 8.3
2020-Jan-25 22:53 286 8.3
2020-Jan-25 22:48 311 8.3
2020-Jan-25 22:43 274 8.3
2020-Jan-25 22:38 300 8.3
2020-Jan-25 22:33 292 0 gusting 2 8.3
2020-Jan-25 22:28 293 0 gusting 2 8.3
2020-Jan-25 22:23 290 1 gusting 4 8.3
2020-Jan-25 22:18 325 1 gusting 4 8.9
2020-Jan-25 22:13 266 0 gusting 3 8.9
2020-Jan-25 22:08 295 0 gusting 3 8.9
2020-Jan-25 22:03 331 0 gusting 3 8.9
2020-Jan-25 21:58 291 0 gusting 2 8.9
2020-Jan-25 21:53 306 0 gusting 2 8.9
2020-Jan-25 21:48 271 1 gusting 6 8.9
2020-Jan-25 21:43 318 1 gusting 6 8.9
2020-Jan-25 21:38 288 0 gusting 2 8.9
2020-Jan-25 21:33 317 0 gusting 2 8.9
2020-Jan-25 21:28 292 1 gusting 6 9.4
2020-Jan-25 21:23 322 2 gusting 6 9.4
2020-Jan-25 21:18 295 2 gusting 6 9.4
2020-Jan-25 21:13 278 1 gusting 6 9.4
2020-Jan-25 21:08 294 2 gusting 6 9.4
2020-Jan-25 21:03 293 2 gusting 6 9.4
2020-Jan-25 20:58 258 2 gusting 6 9.4
2020-Jan-25 20:53 298 1 gusting 6 9.4
2020-Jan-25 20:48 265 2 gusting 7 9.4
2020-Jan-25 20:43 314 1 gusting 7 9.4
2020-Jan-25 20:38 288 1 gusting 6 9.4
2020-Jan-25 20:33 302 2 gusting 6 9.4
2020-Jan-25 20:28 281 1 gusting 7 9.4
2020-Jan-25 20:23 284 1 gusting 7 10.0
2020-Jan-25 20:18 285 2 gusting 5 10.0
2020-Jan-25 20:13 290 2 gusting 5 10.0
2020-Jan-25 20:08 357 1 gusting 4 10.0
2020-Jan-25 20:03 328 1 gusting 6 10.0
2020-Jan-25 19:58 321 2 gusting 9 10.0
2020-Jan-25 19:53 311 2 gusting 9 9.4
2020-Jan-25 19:48 275 3 gusting 7 9.4
2020-Jan-25 19:43 306 1 gusting 7 9.4
2020-Jan-25 19:38 294 1 gusting 7 9.4
2020-Jan-25 19:33 292 2 gusting 7 9.4
2020-Jan-25 19:28 283 2 gusting 7 9.4
2020-Jan-25 19:23 283 2 gusting 6 9.4
2020-Jan-25 19:18 024 3 gusting 6 9.4
2020-Jan-25 19:13 286 5 gusting 11 9.4
2020-Jan-25 19:08 298 4 gusting 11 9.4
2020-Jan-25 19:03 359 2 gusting 7 9.4
2020-Jan-25 18:58 345 2 gusting 7 9.4
2020-Jan-25 18:53 316 3 gusting 9 8.9
2020-Jan-25 18:48 281 4 gusting 9 8.9
2020-Jan-25 18:43 300 5 gusting 12 8.9
2020-Jan-25 18:38 275 5 gusting 12 8.9
2020-Jan-25 18:33 276 3 gusting 9 8.9
2020-Jan-25 18:28 070 3 gusting 7 8.9
2020-Jan-25 18:23 265 2 gusting 7 9.4
2020-Jan-25 18:18 331 1 gusting 6 9.4
2020-Jan-25 18:13 319 2 gusting 6 9.4
2020-Jan-25 18:08 300 1 gusting 6 9.4
2020-Jan-25 18:03 284 1 gusting 6 9.4
2020-Jan-25 17:58 315 2 gusting 6 8.9
2020-Jan-25 17:53 293 1 gusting 4 8.9
2020-Jan-25 17:48 251 1 gusting 5 8.9
2020-Jan-25 17:43 278 2 gusting 6 8.3
2020-Jan-25 17:38 293 2 gusting 6 8.3
2020-Jan-25 17:33 296 1 gusting 5 8.3
2020-Jan-25 17:28 323 1 gusting 4 8.3
2020-Jan-25 17:23 285 0 gusting 2 8.3
2020-Jan-25 17:18 321 7.8
2020-Jan-25 17:13 244 0 gusting 1 7.8
2020-Jan-25 17:08 010 0 gusting 3 7.8
2020-Jan-25 17:03 281 1 gusting 4 7.2
2020-Jan-25 16:58 282 2 gusting 4 7.2
2020-Jan-25 16:53 319 1 gusting 4 7.2
2020-Jan-25 16:48 280 0 gusting 5 7.8
2020-Jan-25 16:43 287 0 gusting 5 7.2
2020-Jan-25 16:38 327 0 gusting 2 7.2
2020-Jan-25 16:33 328 0 gusting 3 7.2
2020-Jan-25 16:28 323 1 gusting 4 7.2
2020-Jan-25 16:23 280 0 gusting 4 7.2
2020-Jan-25 16:18 315 0 gusting 3 7.8
2020-Jan-25 16:12 284 0 gusting 3 7.2
2020-Jan-25 16:07 298 0 gusting 3 7.2
2020-Jan-25 16:02 283 0 gusting 3 7.2
2020-Jan-25 15:57 257 0 gusting 3 7.2
2020-Jan-25 15:52 326 0 gusting 3 7.2
2020-Jan-25 15:47 305 1 gusting 3 7.2
2020-Jan-25 15:42 282 0 gusting 4 7.2
2020-Jan-25 15:37 296 1 gusting 4 7.2
2020-Jan-25 15:32 297 1 gusting 4 7.2
2020-Jan-25 15:27 281 0 gusting 3 7.2
2020-Jan-25 15:22 338 0 gusting 2 7.2
2020-Jan-25 15:17 293 0 gusting 4 7.2
2020-Jan-25 15:12 307 0 gusting 4 7.2
2020-Jan-25 15:07 286 1 gusting 3 7.2
2020-Jan-25 15:02 262 1 gusting 2 7.2
2020-Jan-25 14:57 278 1 gusting 4 7.2
2020-Jan-25 14:52 287 1 gusting 4 7.2
2020-Jan-25 14:47 270 1 gusting 4 7.2
2020-Jan-25 14:42 307 1 gusting 4 7.2
2020-Jan-25 14:37 298 1 gusting 4 7.2
2020-Jan-25 14:32 274 1 gusting 4 7.8
2020-Jan-25 14:27 301 0 gusting 3 7.8
2020-Jan-25 14:22 279 0 gusting 1 7.8
2020-Jan-25 14:17 275 0 gusting 1 7.8
2020-Jan-25 14:12 277 0 gusting 1 7.2
2020-Jan-25 14:07 262 7.8
2020-Jan-25 14:02 261 7.2
2020-Jan-25 13:57 260 7.2
2020-Jan-25 13:52 233 7.2
2020-Jan-25 13:47 233 7.2
2020-Jan-25 13:42 273 0 gusting 1 7.2
2020-Jan-25 13:37 268 0 gusting 1 7.2
2020-Jan-25 13:32 271 0 gusting 2 7.2
2020-Jan-25 13:27 288 0 gusting 2 7.2
2020-Jan-25 13:22 275 0 gusting 1 7.2
2020-Jan-25 13:17 283 0 gusting 3 7.2
2020-Jan-25 13:12 283 0 gusting 3 7.2
2020-Jan-25 13:07 246 0 gusting 1 7.2
2020-Jan-25 13:02 259 0 gusting 1 7.2